User: anonymous   Login
Location: Robert Brownlee Observatory
(34.2308°N, 117.2089°W)
Time: 08:13:53
(UTC-08:00)
Language:

Cosmos 1943 - Orbit

View from above orbital plane
View from above orbital plane
View from above satellite
View from above satellite

Ground track
Ground track

The orbit data is extracted from the following two-line orbital elements,

1 19119U 88039A   17021.20722583  .00000098  00000-0  74956-4 0  9991
2 19119  71.0026  50.4407 0013873 278.8354 146.1070 14.15079735481305
Epoch (UTC): 21 January 2017 04:58:24
Eccentricity: 0.0013873
inclination: 71.0026°
perigee height: 832 km
apogee height: 852 km
right ascension of ascending node: 50.4407°
argument of perigee: 278.8354°
revolutions per day: 14.15079735
mean anomaly at epoch: 146.1070°
orbit number at epoch: 48130

The dashed part of the orbit path shows where the satellite is in the earth's shadow,  

DLR